User: anonymous   Login
Location: Newark
(44.3248°N, 23.7839°E)
Time: 23:44:25
(UTC+00:00)
Language:

CUTE-I - Orbit

View from above orbital plane
View from above orbital plane
View from above satellite
View from above satellite

Ground track
Ground track

The orbit data is extracted from the following two-line orbital elements,

1 27844U 03031E   24114.53599146  .00001216  00000-0  55733-3 0  9992
2 27844  98.6791 122.3267 0008686 307.9893  52.0500 14.23182845 80016
Epoch (UTC): 23 April 2024 12:51:49
Eccentricity: 0.0008686
inclination: 98.6791°
perigee height: 808 km
apogee height: 821 km
right ascension of ascending node: 122.3267°
argument of perigee: 307.9893°
revolutions per day: 14.23182845
mean anomaly at epoch: 52.0500°
orbit number at epoch: 8001

The dashed part of the orbit path shows where the satellite is in the earth's shadow,  

DLR